User: anonymous   Login
Location: Klein M�hlingen
(51.9472°N, 11.7453°E)
Time: 06:28:08
(UTC+00:00)
Language:

Tiangong - Orbit

View from above orbital plane
View from above orbital plane
View from above satellite
View from above satellite

Ground track
Ground track

The orbit data is extracted from the following two-line orbital elements,

1 48274U 21035A   21298.85003485  .00021238  00000-0  25043-3 0  9994
2 48274  41.4701 206.2680 0006594 260.8817 170.6944 15.60828453 28131
Epoch (UTC): 25 October 2021 20:24:03
Eccentricity: 0.0006594
inclination: 41.4701°
perigee height: 381 km
apogee height: 390 km
right ascension of ascending node: 206.2680°
argument of perigee: 260.8817°
revolutions per day: 15.60828453
mean anomaly at epoch: 170.6944°
orbit number at epoch: 2813

The dashed part of the orbit path shows where the satellite is in the earth's shadow,  

DLR